KT5AL Weather Reports


Display with metric or nautical units.
time (UTC)temp
F
wind
direction
speed
MPH
gust
MPH
rain 1hr
in
rain 24hr
in
rain mn
in
humidity
%
barometer
mb
20260507134507 54 360 5.0 8.0 0.00 0.01 0.00 98 1023.6
20260507134004 54 337 6.0 7.0 0.00 0.01 0.00 99 1023.6
20260507133507 53 337 6.0 7.0 0.00 0.01 0.00 98 1023.9
20260507133004 52 337 5.0 7.0 0.00 0.01 0.00 99 1023.9
20260507132503 52 337 5.0 6.0 0.00 0.01 0.00 100 1023.9
20260507132006 52 337 5.0 7.0 0.00 0.01 0.00 100 1023.9
20260507131509 52 337 7.0 8.0 0.00 0.01 0.00 100 1023.9
20260507131032 51 337 6.0 7.0 0.00 0.01 0.00 100 1023.9
20260507130504 51 337 6.0 7.0 0.00 0.01 0.00 100 1024.3
20260507130004 50 337 4.0 5.0 0.00 0.01 0.00 100 1024.3
20260507125508 50 337 5.0 7.0 0.00 0.01 0.00 100 1024.3
20260507125005 49 315 4.0 5.0 0.00 0.01 0.00 100 1024.3
20260507124508 49 315 4.0 5.0 0.00 0.01 0.00 100 1024.3
20260507124005 49 315 4.0 5.0 0.00 0.01 0.00 100 1024.3
20260507123508 49 315 5.0 6.0 0.00 0.01 0.00 100 1023.9
20260507123007 49 315 6.0 7.0 0.00 0.01 0.00 100 1023.9
20260507122504 48 337 7.0 8.0 0.00 0.01 0.00 100 1023.9
20260507122007 48 337 6.0 7.0 0.00 0.01 0.00 100 1023.9
20260507121504 48 315 6.0 7.0 0.00 0.01 0.00 100 1023.9
20260507121007 48 315 6.0 7.0 0.00 0.01 0.00 100 1023.9
20260507120504 48 315 6.0 7.0 0.00 0.01 0.00 100 1023.9
20260507120007 48 315 4.0 5.0 0.00 0.01 0.00 100 1023.9
20260507115504 48 315 4.0 6.0 0.00 0.01 0.00 100 1023.9
20260507115007 48 315 6.0 7.0 0.00 0.01 0.00 100 1023.9
20260507114504 48 292 6.0 8.0 0.00 0.01 0.00 100 1023.9
20260507114007 49 292 6.0 8.0 0.00 0.01 0.00 100 1023.9
20260507113505 49 292 6.0 7.0 0.00 0.01 0.00 100 1023.9
20260507113008 49 292 7.0 8.0 0.00 0.01 0.00 100 1023.9
20260507112505 49 292 6.0 7.0 0.00 0.01 0.00 100 1023.9
20260507112010 49 292 6.0 7.0 0.00 0.01 0.00 100 1023.9
20260507111506 49 270 6.0 7.0 0.00 0.01 0.00 100 1023.9
20260507111008 49 270 4.0 5.0 0.00 0.01 0.00 100 1023.9
20260507110531 49 270 4.0 5.0 0.00 0.01 0.00 100 1023.6
20260507110008 49 270 4.0 5.0 0.00 0.01 0.00 100 1023.6
20260507105505 49 270 4.0 5.0 0.00 0.01 0.00 100 1023.6
20260507105008 49 225 5.0 6.0 0.00 0.01 0.00 100 1023.6
20260507104505 49 315 5.0 6.0 0.00 0.01 0.00 100 1023.6
20260507104008 49 315 6.0 7.0 0.00 0.01 0.00 100 1023.6
20260507103505 49 315 5.0 6.0 0.00 0.01 0.00 100 1023.6
20260507103008 49 315 6.0 7.0 0.00 0.01 0.00 100 1023.6
20260507102505 49 315 6.0 7.0 0.00 0.01 0.00 100 1023.2
20260507102008 49 315 6.0 7.0 0.00 0.01 0.00 100 1023.2
20260507101506 49 315 5.0 6.0 0.00 0.01 0.00 100 1022.9
20260507101008 49 315 5.0 6.0 0.00 0.01 0.00 100 1022.9
20260507100505 49 315 4.0 5.0 0.00 0.01 0.00 100 1022.6
20260507100008 50 315 4.0 5.0 0.00 0.01 0.00 100 1022.6
20260507095505 50 337 5.0 6.0 0.00 0.01 0.00 100 1022.2
20260507095008 50 337 6.0 7.0 0.00 0.01 0.00 100 1022.2
20260507094505 50 337 5.0 6.0 0.00 0.01 0.00 100 1022.2
20260507094008 50 337 4.0 5.0 0.00 0.01 0.00 100 1022.2
20260507093505 50 337 4.0 6.0 0.00 0.01 0.00 100 1022.2
20260507093004 50 337 4.0 6.0 0.00 0.01 0.00 100 1022.2
20260507092507 50 337 4.0 5.0 0.00 0.01 0.00 100 1022.2
20260507092004 50 337 3.0 4.0 0.00 0.01 0.00 100 1022.2
20260507091509 50 337 4.0 5.0 0.00 0.01 0.00 100 1022.2
20260507091006 50 337 4.0 5.0 0.00 0.01 0.00 100 1022.2
20260507090509 50 337 5.0 6.0 0.00 0.01 0.00 100 1022.2
20260507090006 50 337 4.0 6.0 0.00 0.01 0.00 100 1022.2
20260507085504 50 360 4.0 5.0 0.00 0.01 0.00 100 1021.9
20260507085007 50 360 4.0 5.0 0.00 0.01 0.00 100 1021.9
20260507084504 50 337 5.0 6.0 0.00 0.01 0.00 100 1021.9
20260507084007 50 360 5.0 7.0 0.00 0.01 0.00 100 1021.9
20260507083504 50 337 4.0 5.0 0.00 0.01 0.00 100 1021.9
20260507083007 51 337 3.0 4.0 0.00 0.01 0.00 100 1021.9
20260507082504 51 337 4.0 5.0 0.00 0.01 0.00 100 1021.9
20260507082007 51 337 4.0 5.0 0.00 0.01 0.00 100 1021.9
20260507081504 51 337 3.0 4.0 0.00 0.01 0.00 100 1021.9
20260507081007 51 360 2.0 3.0 0.00 0.01 0.00 100 1021.9
20260507080504 51 360 3.0 4.0 0.00 0.01 0.00 100 1021.5
20260507080007 51 337 5.0 7.0 0.00 0.01 0.00 100 1021.5
20260507075504 51 337 6.0 8.0 0.00 0.01 0.00 100 1021.5
20260507075006 51 360 6.0 10.0 0.00 0.01 0.00 100 1021.5
20260507074504 51 337 5.0 7.0 0.00 0.01 0.00 100 1021.2
20260507074007 51 22 6.0 8.0 0.00 0.01 0.00 100 1021.2
20260507073504 51 337 7.0 9.0 0.00 0.01 0.00 100 1021.5
20260507073007 51 337 7.0 9.0 0.00 0.01 0.00 100 1021.5
20260507072504 51 337 6.0 10.0 0.00 0.01 0.00 100 1021.5
20260507072007 51 337 7.0 10.0 0.00 0.01 0.00 100 1021.5
20260507071504 51 337 7.0 9.0 0.00 0.01 0.00 100 1021.5
20260507071007 51 337 7.0 9.0 0.00 0.01 0.00 100 1021.5
20260507070504 51 337 6.0 8.0 0.00 0.01 0.00 100 1021.5
20260507070010 51 337 6.0 7.0 0.00 0.01 0.00 100 1021.5
20260507065536 52 337 6.0 9.0 0.00 0.01 0.00 100 1021.2
20260507065007 52 337 6.0 8.0 0.00 0.01 0.00 100 1021.2
20260507064504 52 337 7.0 8.0 0.00 0.01 0.00 100 1021.2
20260507064007 52 337 6.0 7.0 0.00 0.01 0.00 100 1021.2
20260507063504 52 337 6.0 8.0 0.00 0.01 0.00 100 1021.2
20260507063008 52 337 6.0 7.0 0.00 0.01 0.00 100 1021.2
20260507062505 53 337 7.0 9.0 0.00 0.01 0.00 100 1021.2
20260507062008 54 337 6.0 8.0 0.00 0.01 0.00 99 1021.2
20260507061505 54 360 5.0 6.0 0.00 0.01 0.00 96 1020.9
20260507061008 54 22 5.0 7.0 0.00 0.01 0.00 96 1020.9
20260507060505 54 22 3.0 4.0 0.00 0.01 0.00 94 1020.5
20260507060008 55 22 4.0 5.0 0.00 0.01 0.00 94 1020.5
20260507055504 55 22 4.0 6.0 0.00 0.01 0.00 94 1020.5
20260507055007 55 22 5.0 7.0 0.00 0.01 0.00 94 1020.5
20260507054504 55 45 6.0 7.0 0.00 0.01 0.00 94 1020.5
20260507054007 55 45 6.0 8.0 0.00 0.01 0.00 95 1020.5
20260507053504 55 45 5.0 5.0 0.00 0.01 0.00 95 1020.5
20260507053007 55 22 4.0 6.0 0.00 0.01 0.00 95 1020.5
20260507052504 55 22 6.0 8.0 0.00 0.01 0.00 95 1020.5
20260507052007 55 22 6.0 8.0 0.00 0.01 0.00 95 1020.5
20260507051504 55 45 5.0 8.0 0.00 0.01 0.00 95 1020.5
20260507051007 55 45 6.0 8.0 0.00 0.01 0.00 95 1020.5
20260507050504 55 45 5.0 6.0 0.00 0.01 0.00 94 1020.5
20260507050007 55 45 4.0 5.0 0.00 0.01 0.00 94 1020.5
20260507045503 55 22 5.0 7.0 0.00 0.01 0.01 94 1020.5
20260507045038 55 22 5.0 7.0 0.00 0.01 0.01 94 1020.5
20260507044503 55 22 5.0 6.0 0.00 0.01 0.01 93 1020.5
20260507044006 55 22 5.0 6.0 0.00 0.01 0.01 92 1020.5
20260507043508 56 22 4.0 6.0 0.00 0.01 0.01 91 1020.5
20260507043006 56 22 5.0 6.0 0.00 0.01 0.01 91 1020.5
20260507042509 56 22 6.0 7.0 0.00 0.01 0.01 89 1020.5
20260507042006 56 360 5.0 6.0 0.00 0.01 0.01 88 1020.5
20260507041509 56 22 5.0 6.0 0.00 0.01 0.01 88 1020.2
20260507041006 57 22 5.0 6.0 0.00 0.01 0.01 86 1020.2
20260507040507 57 22 5.0 7.0 0.00 0.01 0.01 86 1019.9
20260507040004 57 22 5.0 6.0 0.00 0.01 0.01 84 1019.9
20260507035503 57 45 5.0 6.0 0.00 0.01 0.01 84 1019.9
20260507035006 57 45 7.0 10.0 0.00 0.01 0.01 83 1019.9
20260507034509 58 67 7.0 9.0 0.00 0.01 0.01 83 1020.2
20260507034006 58 45 7.0 10.0 0.00 0.01 0.01 83 1020.2
20260507033503 58 45 7.0 10.0 0.00 0.01 0.01 83 1019.9
20260507033006 58 22 5.0 8.0 0.00 0.01 0.01 83 1019.9
20260507032503 58 22 8.0 11.0 0.00 0.01 0.01 82 1019.9
20260507032006 58 22 7.0 10.0 0.00 0.01 0.01 82 1019.9
20260507031508 58 22 5.0 7.0 0.00 0.01 0.01 81 1019.5
20260507031005 58 22 8.0 11.0 0.00 0.01 0.01 80 1019.5
20260507030510 59 22 7.0 12.0 0.00 0.01 0.01 80 1019.5
20260507030005 59 360 9.0 14.0 0.00 0.01 0.01 80 1019.5
20260507025506 59 22 8.0 11.0 0.00 0.01 0.01 80 1019.2
20260507025003 59 45 9.0 14.0 0.00 0.01 0.01 79 1019.2
20260507024532 59 22 11.0 15.0 0.00 0.01 0.01 79 1019.2
20260507024003 59 22 9.0 16.0 0.00 0.01 0.01 80 1019.2
20260507023506 59 360 8.0 12.0 0.00 0.01 0.01 81 1019.2
20260507023003 59 22 9.0 11.0 0.00 0.01 0.01 80 1019.2
20260507022504 59 22 10.0 15.0 0.00 0.01 0.01 80 1018.5
20260507022007 59 45 6.0 9.0 0.00 0.01 0.01 80 1018.5
20260507021504 59 22 9.0 13.0 0.00 0.01 0.01 79 1018.5
20260507021005 59 360 9.0 12.0 0.00 0.01 0.01 79 1018.5
20260507020508 59 360 9.0 12.0 0.00 0.01 0.01 79 1018.2
20260507020008 59 360 10.0 13.0 0.00 0.01 0.01 78 1018.2
20260507015505 59 22 10.0 16.0 0.00 0.01 0.01 78 1018.2
20260507015008 60 360 12.0 16.0 0.00 0.01 0.01 79 1018.2
20260507014505 60 22 8.0 13.0 0.00 0.01 0.01 79 1017.8
20260507014008 60 360 8.0 13.0 0.00 0.01 0.01 79 1017.8
20260507013505 60 22 9.0 10.0 0.00 0.01 0.01 79 1017.5
20260507013007 60 22 8.0 10.0 0.00 0.01 0.01 79 1017.5
20260507012506 60 360 10.0 14.0 0.00 0.01 0.01 78 1016.8
20260507012009 61 337 9.0 12.0 0.00 0.01 0.01 77 1016.8
20260507011506 61 360 10.0 15.0 0.00 0.01 0.01 77 1016.8
20260507011009 61 360 8.0 10.0 0.00 0.01 0.01 77 1016.8
20260507010507 61 337 8.0 10.0 0.00 0.01 0.01 76 1016.5
20260507010005 61 22 9.0 12.0 0.00 0.01 0.01 75 1016.5
20260507005508 61 360 11.0 14.0 0.00 0.01 0.01 75 1016.5
20260507005005 62 22 12.0 15.0 0.00 0.01 0.01 75 1016.5
20260507004508 62 22 11.0 15.0 0.00 0.01 0.01 75 1016.5
20260507004031 62 360 6.0 10.0 0.00 0.01 0.01 76 1016.5
20260507003508 62 22 8.0 10.0 0.00 0.01 0.01 75 1016.1
20260507003005 62 360 10.0 13.0 0.00 0.01 0.01 75 1016.1
20260507002508 62 337 9.0 14.0 0.00 0.01 0.01 75 1016.1
20260507002004 62 22 9.0 13.0 0.00 0.01 0.01 75 1016.1
20260507001508 62 22 11.0 15.0 0.00 0.01 0.01 74 1015.4
20260507001005 62 360 8.0 14.0 0.00 0.01 0.01 75 1015.4
20260507000510 63 337 9.0 14.0 0.00 0.01 0.01 74 1015.4
20260507000005 63 360 5.0 7.0 0.00 0.01 0.01 75 1015.4
20260506235506 63 22 10.0 14.0 0.00 0.01 0.01 74 1015.4
20260506235003 63 360 8.0 12.0 0.00 0.01 0.01 74 1015.4
20260506234506 63 22 5.0 9.0 0.00 0.01 0.01 74 1015.1
20260506234009 63 22 9.0 12.0 0.00 0.01 0.01 73 1015.1
20260506233506 63 22 8.0 12.0 0.00 0.01 0.01 73 1015.1
20260506233009 63 22 10.0 13.0 0.00 0.01 0.01 72 1015.1
20260506232506 63 22 8.0 11.0 0.00 0.01 0.01 72 1015.1
20260506232008 63 22 10.0 15.0 0.00 0.01 0.01 71 1015.1
20260506231507 64 22 10.0 15.0 0.00 0.01 0.01 72 1014.8
20260506231004 64 22 10.0 15.0 0.00 0.01 0.01 71 1014.8
20260506230507 64 22 13.0 17.0 0.00 0.01 0.01 70 1006.3
20260506230004 64 22 11.0 14.0 0.00 0.01 0.01 70 1006.3
20260506225507 64 360 10.0 14.0 0.00 0.01 0.01 70 1014.4
20260506225004 64 22 10.0 13.0 0.00 0.01 0.01 69 1014.4
20260506224508 65 22 10.0 13.0 0.00 0.01 0.01 69 1013.8
20260506224004 65 45 10.0 12.0 0.00 0.01 0.01 68 1013.8
20260506223509 65 337 7.0 10.0 0.00 0.01 0.01 68 1013.8
20260506223004 66 22 11.0 15.0 0.00 0.01 0.01 67 1013.8
20260506222508 65 360 8.0 11.0 0.00 0.01 0.01 68 1013.8
20260506221505 65 360 9.0 13.0 0.00 0.01 0.01 67 1013.8
20260506221003 65 337 7.0 10.0 0.00 0.01 0.01 69 1013.8
20260506220506 65 22 11.0 14.0 0.00 0.01 0.01 67 1013.8
20260506220003 65 22 13.0 18.0 0.00 0.01 0.01 67 1013.8
20260506215506 65 337 3.0 8.0 0.00 0.01 0.01 66 1013.4
20260506215003 66 337 7.0 9.0 0.00 0.01 0.01 66 1013.4
20260506214506 66 67 11.0 18.0 0.00 0.01 0.01 66 1013.4
20260506214003 66 360 9.0 10.0 0.00 0.01 0.01 67 1013.4
20260506213532 66 360 4.0 9.0 0.00 0.01 0.01 69 1013.8
20260506213006 65 22 10.0 13.0 0.00 0.01 0.01 67 1013.8
20260506212502 66 45 8.0 11.0 0.00 0.01 0.01 69 1014.1
20260506212006 65 22 9.0 11.0 0.00 0.01 0.01 69 1014.1
20260506211508 65 22 7.0 9.0 0.00 0.01 0.01 70 1013.8
20260506211005 65 360 7.0 10.0 0.00 0.01 0.01 70 1013.8
20260506210510 64 22 9.0 11.0 0.00 0.01 0.01 68 1014.1
20260506210005 65 22 8.0 11.0 0.00 0.01 0.01 70 1014.1
20260506205508 64 45 10.0 13.0 0.00 0.01 0.01 69 1014.1
20260506205005 64 67 8.0 10.0 0.00 0.01 0.01 70 1014.1
20260506204508 64 22 5.0 7.0 0.00 0.01 0.01 69 1014.1
20260506204005 64 360 9.0 11.0 0.00 0.01 0.01 69 1014.1
20260506203508 64 22 9.0 12.0 0.00 0.01 0.01 71 1014.4
20260506203005 64 22 6.0 8.0 0.00 0.01 0.01 70 1014.4
20260506202508 64 45 10.0 14.0 0.00 0.01 0.01 70 1014.8
20260506202005 63 67 8.0 11.0 0.00 0.01 0.01 70 1014.8
20260506201507 63 360 7.0 9.0 0.00 0.01 0.01 70 1014.8
20260506201004 63 45 10.0 11.0 0.00 0.01 0.01 69 1014.8
20260506200508 64 90 8.0 10.0 0.00 0.01 0.01 68 1014.8
20260506200005 64 112 5.0 7.0 0.00 0.01 0.01 67 1014.8
20260506195508 64 67 6.0 8.0 0.00 0.01 0.01 69 1014.8
20260506195007 64 67 10.0 14.0 0.00 0.01 0.01 67 1014.8
20260506194504 64 22 5.0 7.0 0.00 0.01 0.01 69 1015.1
20260506194008 63 360 8.0 10.0 0.00 0.01 0.01 68 1015.1
20260506193504 63 22 7.0 9.0 0.00 0.01 0.01 69 1015.1
20260506193027 63 360 8.0 10.0 0.00 0.01 0.01 70 1015.1
20260506192505 63 67 8.0 11.0 0.00 0.01 0.01 69 1015.1
20260506192008 63 45 5.0 7.0 0.00 0.01 0.01 72 1015.1
20260506191505 63 22 7.0 10.0 0.00 0.01 0.01 71 1015.1
20260506191008 62 45 8.0 10.0 0.00 0.01 0.01 71 1015.1
20260506190504 61 22 7.0 10.0 0.00 0.01 0.01 72 1015.1
20260506190007 61 337 11.0 15.0 0.00 0.01 0.01 73 1015.1
20260506185506 61 22 10.0 14.0 0.00 0.01 0.01 74 1015.1
20260506185003 61 360 8.0 10.0 0.00 0.01 0.01 76 1015.1
20260506184506 61 360 10.0 15.0 0.00 0.01 0.01 77 1015.4
20260506184006 60 22 11.0 16.0 0.00 0.01 0.01 75 1015.4
20260506183504 60 22 8.0 11.0 0.00 0.01 0.01 80 1015.8
20260506183007 59 22 7.0 11.0 0.00 0.01 0.01 80 1015.8
20260506182504 58 22 10.0 12.0 0.00 0.01 0.01 78 1015.8
20260506182007 59 22 11.0 15.0 0.00 0.01 0.01 80 1015.8
20260506181509 58 67 8.0 14.0 0.00 0.01 0.01 80 1015.8
20260506181006 58 22 10.0 14.0 0.00 0.01 0.01 80 1015.8
20260506180507 58 22 12.0 18.0 0.00 0.01 0.01 79 1016.1
20260506180005 58 337 7.0 11.0 0.00 0.01 0.01 83 1016.1
20260506175507 58 360 12.0 17.0 0.00 0.01 0.01 79 1016.5
20260506175004 58 360 10.0 13.0 0.00 0.01 0.01 81 1016.5
20260506174506 57 22 13.0 15.0 0.00 0.01 0.01 81 1016.5
20260506173503 56 360 13.0 18.0 0.00 0.01 0.01 83 1017.1
20260506173005 56 22 12.0 19.0 0.00 0.01 0.01 86 1017.1
20260506172528 55 45 12.0 16.0 0.00 0.01 0.01 86 1017.8
20260506172004 55 22 12.0 17.0 0.00 0.01 0.01 86 1017.8
20260506171508 55 22 15.0 20.0 0.00 0.01 0.01 86 1017.8
20260506171004 55 22 9.0 10.0 0.00 0.01 0.01 88 1017.8
20260506170507 54 45 9.0 14.0 0.00 0.01 0.01 88 1017.8
20260506170004 54 22 10.0 13.0 0.00 0.01 0.01 89 1017.8
20260506165508 54 22 9.0 12.0 0.00 0.01 0.01 89 1017.8
20260506165005 54 22 12.0 18.0 0.00 0.01 0.01 89 1017.8
20260506164507 54 360 13.0 18.0 0.00 0.01 0.01 90 1017.8
20260506164005 54 22 10.0 13.0 0.00 0.01 0.01 90 1017.8
20260506163507 53 360 9.0 12.0 0.00 0.01 0.01 90 1017.5
20260506163005 53 22 11.0 14.0 0.00 0.01 0.01 90 1017.5
20260506162508 53 360 13.0 18.0 0.00 0.01 0.01 90 1017.8
20260506162005 53 22 11.0 15.0 0.00 0.01 0.01 92 1017.8
20260506161509 53 337 8.0 13.0 0.00 0.01 0.01 92 1018.5
20260506161006 53 22 8.0 11.0 0.00 0.01 0.01 93 1018.5
20260506160510 53 22 10.0 13.0 0.00 0.01 0.01 92 1017.8
20260506160005 53 337 9.0 12.0 0.00 0.01 0.01 93 1017.8
20260506155508 53 337 10.0 16.0 0.00 0.01 0.01 95 1017.5
20260506155004 53 22 11.0 17.0 0.00 0.01 0.01 96 1017.5
20260506154507 53 360 11.0 18.0 0.00 0.01 0.01 98 1018.5
20260506154005 53 337 7.0 10.0 0.00 0.01 0.01 100 1018.5
20260506153508 52 360 6.0 8.0 0.00 0.01 0.01 100 1019.5
20260506153005 52 337 7.0 11.0 0.00 0.01 0.01 100 1019.5
20260506152508 52 22 7.0 10.0 0.00 0.01 0.01 100 1020.5
20260506152012 52 337 4.0 5.0 0.00 0.00 0.00 98 1020.5
20260506151506 52 337 6.0 7.0 0.00 0.00 0.00 98 1019.9
20260506151011 52 337 4.0 5.0 0.00 0.00 0.00 98 1019.9
20260506150506 52 22 6.0 8.0 0.00 0.00 0.00 97 1019.2
20260506150009 52 337 7.0 10.0 0.00 0.00 0.00 98 1019.2
20260506145505 52 360 5.0 9.0 0.00 0.00 0.00 98 1017.8
20260506145009 52 22 10.0 13.0 0.00 0.00 0.00 99 1017.8
20260506144504 52 22 9.0 13.0 0.00 0.00 0.00 100 1018.5
20260506144008 52 22 9.0 13.0 0.00 0.00 0.00 100 1018.5
20260506143508 52 360 7.0 10.0 0.00 0.00 0.00 100 1018.5
20260506143005 51 337 8.0 11.0 0.00 0.00 0.00 100 1018.5
20260506142504 51 22 8.0 13.0 0.00 0.00 0.00 100 1018.5
20260506142039 51 337 7.0 11.0 0.00 0.00 0.00 100 1018.5
20260506141507 51 337 8.0 10.0 0.00 0.00 0.00 100 1018.8
20260506141006 52 337 8.0 10.0 0.00 0.00 0.00 98 1018.8
20260506140504 52 360 7.0 10.0 0.00 0.00 0.00 97 1018.5
20260506140006 52 360 9.0 12.0 0.00 0.00 0.00 97 1018.5
20260506135503 52 337 8.0 11.0 0.00 0.00 0.00 97 1017.8
20260506135006 52 360 6.0 9.0 0.00 0.00 0.00 97 1017.8